Flag for Switzerland Weather past 2 weeks in Thalwil, Zurich, Switzerland

Now
84 °F

Passing clouds.


Feels Like: 84 °F
Forecast: 58 / 92 °F
Wind: 3 mph from Northeast

Location: Zurich Town / Ville.

Current Time: Jul 1, 2015 at 9:24:52 PM

Latest Report: Jul 1, 2015 at 8:00 PM


Visibility: N/A

Pressure: 29.99 "Hg

Humidity: 43%

Dew point: 59 °F

Location of ThalwilLocation

Historic Weather in Thalwil — Graph

°F

Thalwil temperature yesterday

Maximum temperature yesterday: 85 °F (at 4:00 PM)
Minimum temperature yesterday: 60 °F (at 7:00 AM)
Average temperature yesterday: 72 °F

Past Weeks' High & Low Weather Summary

 TemperatureHumidityPressure
High88 °F (Jul 1, 4:00 PM)98% (Jun 18, 8:00 PM)30.23 "Hg (Jun 18, 8:00 PM)
Low47 °F (Jun 24, 5:00 AM)26% (Jun 25, 8:00 PM)29.70 "Hg (Jun 22, 10:00 PM)
Average63 °F66%30.09 "Hg
* Reported Jun 16 8:00 PM — Jul 1 8:00 PM, Thalwil, Weather by CustomWeather, © 2015

Note: Actual official high and low records may vary slightly from our data, if they occured in-between our weather recording intervals... More about our weather records

Advertising

Thalwil weather history for previous 24 hours

 ConditionsComfort  
Time TempWeatherWind HumidityBarometerVisibility
8:00 PM
Wed, Jul 1
84 °FPassing clouds.3 mph43%29.99 "HgN/A
7:00 PM86 °FPleasantly warm.3 mph39%29.98 "HgN/A
6:00 PM87 °FPleasantly warm.3 mph36%29.97 "HgN/A
5:00 PM88 °FPleasantly warm.3 mph36%29.98 "HgN/A
4:00 PM88 °FWarm.5 mph41%29.98 "HgN/A
3:00 PM87 °FPleasantly warm.5 mph38%29.99 "HgN/A
2:00 PM85 °FPleasantly warm.3 mph37%30.01 "HgN/A
1:00 PM83 °FWarm.3 mph46%30.02 "HgN/A
12:00 PM81 °FWarm.2 mph51%30.04 "HgN/A
11:00 AM78 °FWarm.2 mph53%30.05 "HgN/A
10:00 AM76 °FMild.2 mph54%30.06 "HgN/A
9:00 AM71 °FMild.1 mph62%30.08 "HgN/A
8:00 AM67 °FMild.1 mph70%30.09 "HgN/A
7:00 AM64 °FMild.2 mph77%30.10 "HgN/A
6:00 AM64 °FMild.6 mph73%30.09 "HgN/A
4:00 AM65 °FMild.3 mph69%30.07 "HgN/A
3:00 AM63 °FMild.2 mph73%30.08 "HgN/A
2:00 AM66 °FMild.3 mph64%30.07 "HgN/A
1:00 AM69 °FMild.3 mph56%30.06 "HgN/A
12:00 AM73 °FMild.7 mph49%30.05 "HgN/A
11:00 PM
Tue, Jun 30
73 °FMild.6 mph46%30.05 "HgN/A
10:00 PM73 °FMild.7 mph43%30.04 "HgN/A
9:00 PM75 °FMild.5 mph40%30.02 "HgN/A
Weather by CustomWeather, © 2015

See weather overviewHow to use our weather pages